ICEPW LIRZ-LIRZ

Flight info

Callsign ICEPW
Flight time 0h 5m
Altitude 4000
Route LOCAL VFR
Aircraft C152/L-SYG/S

Departure

Time 2026-04-28 16:48
Airport Perugia San Francesco d'Assisi – Umbria International Airport (LIRZ)

Arrival

Time 2026-04-28 16:53
Airport Perugia San Francesco d'Assisi – Umbria International Airport (LIRZ)
Time Latitude Longitude Altitude Speed Heading
2026-04-28 16:33 43.09845 12.50284 663 ft 0 kts 275°
2026-04-28 16:34 43.09842 12.50277 663 ft 2 kts 201°
2026-04-28 16:34 43.09814 12.50303 663 ft 0 kts 148°
2026-04-28 16:35 43.09804 12.50308 663 ft 6 kts 127°
2026-04-28 16:35 43.09795 12.50346 663 ft 2 kts 167°
2026-04-28 16:35 43.09734 12.50341 663 ft 11 kts 184°
2026-04-28 16:35 43.09718 12.50321 663 ft 6 kts 265°
2026-04-28 16:36 43.09715 12.50312 663 ft 0 kts 173°
2026-04-28 16:42 43.09711 12.50314 663 ft 5 kts 139°
2026-04-28 16:42 43.09664 12.50368 663 ft 10 kts 181°
2026-04-28 16:43 43.09625 12.50416 663 ft 10 kts 160°
2026-04-28 16:43 43.09510 12.50461 663 ft 20 kts 161°
2026-04-28 16:43 43.09366 12.50546 663 ft 25 kts 149°
2026-04-28 16:43 43.09236 12.50655 663 ft 22 kts 149°
2026-04-28 16:44 43.09103 12.50792 663 ft 25 kts 127°
2026-04-28 16:44 43.09045 12.50951 663 ft 0 kts 104°
2026-04-28 16:46 43.09040 12.50988 663 ft 13 kts 104°
2026-04-28 16:46 43.09031 12.51113 664 ft 11 kts 56°
2026-04-28 16:46 43.09063 12.51139 664 ft 4 kts 28°
2026-04-28 16:47 43.09286 12.51215 664 ft 60 kts 12°
2026-04-28 16:47 43.09774 12.51388 791 ft 74 kts 13°
2026-04-28 16:47 43.10292 12.51567 965 ft 78 kts 11°
2026-04-28 16:47 43.10847 12.51728 1142 ft 86 kts 11°
2026-04-28 16:48 43.11426 12.51790 1380 ft 83 kts 340°
2026-04-28 16:48 43.11857 12.51352 1623 ft 75 kts 294°
2026-04-28 16:48 43.12078 12.50699 1737 ft 77 kts 268°
2026-04-28 16:48 43.11836 12.50047 1701 ft 83 kts 216°
2026-04-28 16:49 43.11302 12.49743 1750 ft 83 kts 197°
2026-04-28 16:49 43.10718 12.49518 1714 ft 92 kts 200°
2026-04-28 16:49 43.10156 12.49243 1653 ft 70 kts 204°
2026-04-28 16:49 43.09762 12.49044 1741 ft 55 kts 202°
2026-04-28 16:50 43.09381 12.48861 1760 ft 58 kts 202°
2026-04-28 16:50 43.08994 12.48700 1774 ft 59 kts 200°
2026-04-28 16:50 43.08592 12.48566 1807 ft 62 kts 194°
2026-04-28 16:50 43.08154 12.48459 1818 ft 65 kts 194°
2026-04-28 16:51 43.07710 12.48370 1766 ft 65 kts 192°
2026-04-28 16:51 43.07253 12.48353 1679 ft 67 kts 172°
2026-04-28 16:51 43.06937 12.48802 1560 ft 74 kts 116°
2026-04-28 16:51 43.06827 12.49502 1356 ft 78 kts 107°
2026-04-28 16:52 43.06848 12.50189 1247 ft 67 kts 61°
2026-04-28 16:52 43.07263 12.50513 1148 ft 71 kts 11°
2026-04-28 16:52 43.07745 12.50673 1035 ft 74 kts 12°
2026-04-28 16:52 43.08253 12.50858 879 ft 77 kts 10°
2026-04-28 16:53 43.08763 12.51034 730 ft 72 kts 12°
2026-04-28 16:53 43.09177 12.51177 663 ft 49 kts 14°
2026-04-28 16:53 43.09544 12.51306 670 ft 72 kts 14°
2026-04-28 16:53 43.10056 12.51483 826 ft 79 kts 12°
2026-04-28 16:54 43.10562 12.51669 1042 ft 80 kts 12°
2026-04-28 16:54 43.11111 12.51836 1285 ft 74 kts 358°
2026-04-28 16:54 43.11530 12.51512 1496 ft 74 kts 298°
2026-04-28 16:54 43.11774 12.50879 1684 ft 78 kts 288°
2026-04-28 16:55 43.11831 12.50141 1693 ft 77 kts 252°
2026-04-28 16:55 43.11517 12.49603 1746 ft 73 kts 208°
2026-04-28 16:55 43.11020 12.49419 1827 ft 75 kts 191°
2026-04-28 16:55 43.10494 12.49282 1855 ft 78 kts 199°
2026-04-28 16:56 43.10002 12.49021 1791 ft 79 kts 206°
2026-04-28 16:56 43.09508 12.48712 1701 ft 78 kts 207°
2026-04-28 16:56 43.09020 12.48392 1528 ft 76 kts 204°
2026-04-28 16:56 43.08592 12.48272 1496 ft 63 kts 162°
2026-04-28 16:57 43.08285 12.48739 1382 ft 69 kts 124°
2026-04-28 16:57 43.08139 12.49393 1308 ft 74 kts 111°
2026-04-28 16:57 43.08060 12.50141 1163 ft 88 kts 81°
2026-04-28 16:57 43.08384 12.50761 958 ft 79 kts 37°
2026-04-28 16:58 43.08869 12.51071 701 ft 76 kts 12°
2026-04-28 16:58 43.09311 12.51220 671 ft 64 kts 14°
2026-04-28 16:58 43.09669 12.51350 661 ft 22 kts 16°
2026-04-28 16:58 43.09771 12.51398 661 ft 11 kts 15°
2026-04-28 16:59 43.09818 12.51310 662 ft 19 kts 250°
2026-04-28 16:59 43.09768 12.51148 663 ft 18 kts 245°
2026-04-28 16:59 43.09721 12.51006 663 ft 25 kts 243°
2026-04-28 16:59 43.09655 12.50802 663 ft 19 kts 248°
2026-04-28 17:00 43.09601 12.50644 663 ft 18 kts 246°
2026-04-28 17:00 43.09559 12.50518 663 ft 9 kts 241°
2026-04-28 17:00 43.09608 12.50417 663 ft 13 kts 339°
2026-04-28 17:00 43.09644 12.50366 663 ft 6 kts 337°
2026-04-28 17:01 43.09686 12.50345 663 ft 4 kts 303°
2026-04-28 17:01 43.09681 12.50311 663 ft 1 kts 310°
2026-04-28 17:01 43.09685 12.50309 663 ft 1 kts 344°
2026-04-28 17:26 43.09684 12.50309 663 ft 0 kts 344°
2026-04-28 17:37 43.09684 12.50310 663 ft 0 kts 344°
2026-04-28 17:56 43.09683 12.50310 663 ft 0 kts 344°